Starlink 30081

operational
NORAD ID: 57515 Int'l Des: 2023-113 Owner: SPXS Country: US Constellation: starlink
LEOCIRCULAR

关于 Starlink 30081

正在加载描述...

实时位置

正在加载3D地球...

即将过境

高度历史

Altitude vs Time

uPlot chart will show altitude changes over time

两行轨道根数

1 57515U 23113X 25306.47895400 .00000408 00000-0 45262-4 0 9991
2 57515 43.0026 348.6414 0001238 272.5224 87.5476 15.02532974124527
Epoch: Nov 2, 2025 • Age: 35 hours

当前状态

高度 560.3 km
速度 7.59 km/s
星下点 30.66°N, 5.72°W
发射日期 Aug 7, 2023
运行时间 2.2 years
类型 internet

技术详情

分类 Payload
质量 730.00 kg
干质量 700.00 kg
总质量 730.00 kg
长度 0.30 m
直径 4.10 m
跨度 29.00 m
形状 Box + pan
制造商 SPXS
平台类型 Starlink V2M
阶段状态 In Orbit
所有者/国家 SPXS/US

大型星座

Loading constellations...